Location: München
(48.1351°N, 11.5820°E)
Time: 21:35:30
(UTC+01:00)

ISS - Pass Details

Date: 29 January 2020
Orbit: 415 x 423 km, 51.6° (Epoch: 25 February)

Event Time Altitude Azimuth Distance (km) Brightness Sun altitude
Rises 17:36:18 0° 260° (W) 2,376 2.2 -5.2°
Reaches altitude 10° 17:38:26 10° 264° (W) 1,511 0.6 -5.5°
Maximum altitude 17:41:47 59° 345° (NNW) 495 -3.4 -6.1°
Drops below altitude 10° 17:45:09 10° 66° (ENE) 1,512 -1.6 -6.6°
Enters shadow 17:45:24 - 67° (ENE) 1,615 -1.5 -6.6°
